Weather History for Moncks Corner, SC

Change the Weather History Date:

Saturday, October 20, 2012

  Actual Average (KCHS) Record (KCHS)
Temperature  
Mean Temperature 62 °F 66 °F  
Max Temperature 75 °F 76 °F 87 °F (1950)
Min Temperature 50 °F 55 °F 34 °F (1981)
Degree Days  
Heating Degree Days 2 2  
Month to date heating degree days 28  
Since 1 July heating degree days 31  
Cooling Degree Days 0 3  
Month to date cooling degree days 99  
Year to date cooling degree days 2237  
Growing Degree Days 12 (Base 50)    
Moisture  
Dew Point 49 °F    
Average Humidity 67    
Maximum Humidity 94    
Minimum Humidity 33    
Precipitation  
Precipitation 0.00 in 0.11 in 2.75 in (1970)
Month to date precipitation 2.69  
Year to date precipitation 44.43  
Sea Level Pressure  
Sea Level Pressure 29.87 in    
Wind  
Wind Speed 3 mph (WSW)    
Max Wind Speed 12 mph    
Max Gust Speed -    
Visibility 9 miles    
Events      
T = Trace of Precipitation, MM = Missing Value Source: NWS Daily Summary

Daily Weather History Graph

Daily Weather History Graph

Search for Another Location

Airport:

Trip Planner

Search our weather history database for the weather conditions in past years. The results will help you decide how hot, cold, wet, or windy it might be!

Date:

Astronomy

Oct. 20, 2012 Rise Set
Actual Time 7:28 AM EDT 6:40 PM EDT
Civil Twilight 7:03 AM EDT 7:05 PM EDT
Nautical Twilight 6:34 AM EDT 7:34 PM EDT
Astronomical Twilight 6:06 AM EDT 8:03 PM EDT
Moon 12:54 PM EDT (10/20) 11:32 PM EDT (10/20)
Length of Visible Light 12h 01m
Length of Day
11h 11m
Waxing Crescent, 34% of the Moon is Illuminated
Oct 20
Waxing Crescent
Oct 21
First Quarter
Oct 29
Full
Nov 6
Last Quarter
Nov 13
New

Hourly Weather History & Observations

Time (EDT) Temp. Dew Point Humidity Pressure Visibility Wind Dir Wind Speed Gust Speed Precip Events Conditions
12:15 AM 59.0 °F 51.8 °F 77% 29.84 in 10.0 mi SW 4.6 mph - N/A   Clear
12:35 AM 59.0 °F 51.8 °F 77% 29.84 in 10.0 mi Calm Calm - N/A   Clear
12:55 AM 57.2 °F 51.8 °F 82% 29.84 in 10.0 mi Calm Calm - N/A   Clear
1:15 AM 57.2 °F 51.8 °F 82% 29.83 in 10.0 mi SW 4.6 mph - N/A   Clear
1:35 AM 60.8 °F 53.6 °F 77% 29.84 in 10.0 mi WSW 3.5 mph - N/A   Clear
1:55 AM 60.8 °F 53.6 °F 77% 29.83 in 10.0 mi WSW 5.8 mph - N/A   Clear
2:15 AM 59.0 °F 53.6 °F 82% 29.83 in 10.0 mi WSW 4.6 mph - N/A   Clear
2:35 AM 59.0 °F 51.8 °F 77% 29.83 in 10.0 mi WSW 4.6 mph - N/A   Clear
2:55 AM 59.0 °F 51.8 °F 77% 29.83 in 10.0 mi WSW 4.6 mph - N/A   Clear
3:15 AM 59.0 °F 50.0 °F 72% 29.83 in 10.0 mi WSW 3.5 mph - N/A   Clear
3:35 AM 57.2 °F 50.0 °F 77% 29.83 in 10.0 mi WSW 3.5 mph - N/A   Clear
3:55 AM 55.4 °F 50.0 °F 82% 29.82 in 10.0 mi Calm Calm - N/A   Clear
4:15 AM 55.4 °F 50.0 °F 82% 29.82 in 10.0 mi WSW 3.5 mph - N/A   Clear
4:35 AM 55.4 °F 50.0 °F 82% 29.82 in 10.0 mi WSW 3.5 mph - N/A   Clear
4:55 AM 53.6 °F 50.0 °F 88% 29.82 in 7.0 mi Calm Calm - N/A   Clear
5:15 AM 53.6 °F 48.2 °F 82% 29.82 in 10.0 mi Calm Calm - N/A   Clear
5:35 AM 53.6 °F 48.2 °F 82% 29.83 in 10.0 mi Calm Calm - N/A   Clear
5:55 AM 53.6 °F 48.2 °F 82% 29.83 in 10.0 mi WSW 3.5 mph - N/A   Clear
6:15 AM 53.6 °F 48.2 °F 82% 29.84 in 7.0 mi WSW 3.5 mph - N/A   Clear
6:35 AM 51.8 °F 46.4 °F 82% 29.85 in 7.0 mi Calm Calm - N/A   Clear
6:55 AM 51.8 °F 46.4 °F 82% 29.85 in 10.0 mi Calm Calm - N/A   Clear
7:15 AM 51.8 °F 46.4 °F 82% 29.87 in 10.0 mi Calm Calm - N/A   Clear
7:35 AM 51.8 °F 46.4 °F 82% 29.87 in 10.0 mi Calm Calm - N/A   Clear
7:55 AM 50.0 °F 46.4 °F 87% 29.88 in 10.0 mi Calm Calm - N/A   Clear
8:15 AM 51.8 °F 48.2 °F 88% 29.88 in 10.0 mi Calm Calm - N/A   Clear
8:35 AM 53.6 °F 48.2 °F 82% 29.89 in 10.0 mi Calm Calm - N/A   Clear
8:55 AM 57.2 °F 48.2 °F 72% 29.90 in 7.0 mi WSW 3.5 mph - N/A   Clear
9:15 AM 59.0 °F 48.2 °F 67% 29.90 in 10.0 mi SW 3.5 mph - N/A   Clear
9:35 AM 60.8 °F 48.2 °F 63% 29.91 in 10.0 mi Calm Calm - N/A   Clear
9:55 AM 62.6 °F 46.4 °F 55% 29.90 in 7.0 mi WSW 4.6 mph - N/A   Clear
10:15 AM 64.4 °F 48.2 °F 56% 29.90 in 7.0 mi Calm Calm - N/A   Clear
10:35 AM 66.2 °F 48.2 °F 52% 29.90 in 7.0 mi WSW 4.6 mph - N/A   Clear
10:55 AM 68.0 °F 50.0 °F 52% 29.90 in 7.0 mi West 3.5 mph - N/A   Clear
11:15 AM 69.8 °F 48.2 °F 46% 29.90 in 7.0 mi WSW 4.6 mph - N/A   Clear
11:35 AM 71.6 °F 48.2 °F 43% 29.89 in 10.0 mi WSW 4.6 mph - N/A   Clear
11:55 AM 71.6 °F 46.4 °F 41% 29.89 in 10.0 mi WSW 5.8 mph - N/A   Clear
12:15 PM 71.6 °F 44.6 °F 38% 29.88 in 7.0 mi WSW 6.9 mph - N/A   Clear
12:35 PM 73.4 °F 42.8 °F 33% 29.87 in 7.0 mi WSW 6.9 mph - N/A   Clear
12:55 PM 73.4 °F 44.6 °F 36% 29.87 in 7.0 mi West 3.5 mph - N/A   Clear
1:15 PM 75.2 °F 44.6 °F 34% 29.86 in 7.0 mi WSW 5.8 mph - N/A   Clear
1:35 PM 75.2 °F 44.6 °F 34% 29.86 in 7.0 mi WSW 9.2 mph - N/A   Clear
1:55 PM 75.2 °F 44.6 °F 34% 29.85 in 7.0 mi West 9.2 mph - N/A   Clear
2:15 PM 75.2 °F 44.6 °F 34% 29.85 in 10.0 mi West 6.9 mph - N/A   Clear
2:35 PM 75.2 °F 46.4 °F 36% 29.84 in 10.0 mi WSW 6.9 mph - N/A   Clear
2:55 PM 75.2 °F 46.4 °F 36% 29.84 in 7.0 mi West 4.6 mph - N/A   Clear
3:15 PM 75.2 °F 46.4 °F 36% 29.84 in 7.0 mi WSW 5.8 mph - N/A   Clear
3:35 PM 75.2 °F 46.4 °F 36% 29.83 in 7.0 mi SW 11.5 mph - N/A   Clear
3:55 PM 75.2 °F 44.6 °F 34% 29.83 in 7.0 mi West 4.6 mph - N/A   Clear
4:15 PM 75.2 °F 46.4 °F 36% 29.83 in 7.0 mi SW 9.2 mph - N/A   Clear
4:35 PM 75.2 °F 46.4 °F 36% 29.84 in 7.0 mi WSW 5.8 mph - N/A   Clear
4:55 PM 75.2 °F 46.4 °F 36% 29.84 in 7.0 mi WSW 4.6 mph - N/A   Clear
5:15 PM 73.4 °F 46.4 °F 38% 29.84 in 10.0 mi WSW 3.5 mph - N/A   Clear
5:35 PM 73.4 °F 48.2 °F 41% 29.85 in 7.0 mi WSW 3.5 mph - N/A   Clear
5:55 PM 71.6 °F 50.0 °F 46% 29.85 in 7.0 mi Calm Calm - N/A   Clear
6:15 PM 68.0 °F 51.8 °F 56% 29.85 in 7.0 mi Calm Calm - N/A   Clear
6:35 PM 64.4 °F 53.6 °F 68% 29.85 in 10.0 mi Calm Calm - N/A   Clear
6:55 PM 62.6 °F 53.6 °F 72% 29.87 in 7.0 mi Calm Calm - N/A   Clear
7:15 PM 60.8 °F 55.4 °F 82% 29.87 in 10.0 mi Calm Calm - N/A   Clear
7:35 PM 59.0 °F 55.4 °F 88% 29.88 in 10.0 mi Calm Calm - N/A   Clear
7:55 PM 59.0 °F 53.6 °F 82% 29.88 in 10.0 mi Calm Calm - N/A   Clear
8:15 PM 59.0 °F 53.6 °F 82% 29.89 in 10.0 mi Calm Calm - N/A   Clear
8:35 PM 59.0 °F 53.6 °F 82% 29.90 in 10.0 mi Calm Calm - N/A   Clear
8:55 PM 57.2 °F 53.6 °F 88% 29.91 in 10.0 mi Calm Calm - N/A   Clear
9:15 PM 57.2 °F 53.6 °F 88% 29.92 in 10.0 mi Calm Calm - N/A   Clear
9:35 PM 55.4 °F 53.6 °F 94% 29.92 in 7.0 mi Calm Calm - N/A   Clear
9:55 PM 55.4 °F 53.6 °F 94% 29.93 in 10.0 mi Calm Calm - N/A   Clear
10:15 PM 55.4 °F 51.8 °F 88% 29.93 in 10.0 mi Calm Calm - N/A   Clear
10:35 PM 55.4 °F 51.8 °F 88% 29.94 in 7.0 mi Calm Calm - N/A   Clear
10:55 PM 55.4 °F 51.8 °F 88% 29.95 in 10.0 mi Calm Calm - N/A   Clear
11:15 PM 53.6 °F 51.8 °F 94% 29.94 in 7.0 mi Calm Calm - N/A   Clear
11:35 PM 53.6 °F 51.8 °F 94% 29.94 in 7.0 mi Calm Calm - N/A   Clear
11:55 PM 53.6 °F 51.8 °F 94% 29.95 in 10.0 mi Calm Calm - N/A   Clear